Probability
7 13 22 25 24 22 21 18 16 16 15 14 13 12 11 9 5 4 3 2 1 0 0 0 0 0 0 0 0 0 0 0 0 0 0 0 0 0 0 0 0 0 0
8 14 22 27 27 25 23 20 18 18 17 16 14 12 11 10 7 5 4 3 1 0 0 0 0 0 0 0 0 0 0 0 0 0 0 0 0 0 0 0 0 0 0
9 14 21 27 30 28 25 24 23 21 18 16 14 12 11 10 8 6 5 3 1 0 0 0 0 0 0 0 0 0 0 0 0 0 0 0 0 1 1 0 0 0 1
12 13 19 28 34 32 30 29 28 23 18 15 13 11 10 9 8 6 4 3 2 1 0 0 0 0 0 0 0 0 0 0 0 0 0 0 1 2 2 1 0 1 2
16 15 20 31 37 36 35 32 30 25 20 16 12 10 9 8 7 6 4 3 3 2 1 0 1 1 1 1 2 1 1 0 0 0 0 0 1 2 2 2 1 1 2
17 17 23 34 38 38 37 34 31 27 22 17 13 11 9 8 8 7 6 4 3 3 1 1 2 2 2 3 3 2 1 0 0 0 0 0 0 1 1 1 2 2 3
18 18 25 35 39 38 36 34 32 27 21 17 14 11 10 9 9 8 7 5 4 4 3 3 3 3 3 3 3 3 1 0 0 0 0 0 0 1 1 1 1 2 3
19 19 24 32 36 35 35 35 32 26 20 18 15 13 11 10 9 8 7 6 6 5 4 3 3 2 3 3 3 3 2 0 0 0 0 0 1 3 4 3 2 2 1
21 21 23 27 29 31 33 35 32 26 20 18 16 15 13 11 9 9 8 7 6 6 5 4 3 3 2 3 3 3 1 1 0 0 0 1 3 5 7 7 6 3 2
21 20 21 23 25 27 31 33 31 27 22 18 16 16 14 11 10 10 8 7 7 8 6 4 3 3 2 2 3 3 2 1 1 0 0 2 4 6 7 8 8 7 6
18 16 17 20 22 25 27 28 28 26 22 18 15 13 12 11 10 10 9 7 7 7 5 4 3 3 2 1 2 3 3 2 1 0 1 2 4 5 6 7 8 8 7
15 13 13 15 17 20 22 22 23 23 19 15 12 9 8 9 9 9 9 8 7 6 5 4 3 3 2 1 1 3 3 2 1 0 1 3 5 6 6 6 6 6 6
12 12 11 13 15 17 17 17 17 16 14 12 9 6 5 5 6 8 8 8 7 7 6 5 4 3 2 0 1 2 2 1 0 0 2 4 5 6 6 4 4 4 3
9 9 11 13 14 14 14 13 13 12 11 11 9 7 5 5 5 7 8 7 7 7 7 6 5 4 3 1 0 1 1 0 0 1 2 4 4 4 3 2 2 2 1
7 8 10 13 13 12 12 12 11 11 10 9 9 9 8 7 7 8 8 7 6 6 6 6 6 6 5 2 1 1 1 1 1 2 3 3 2 2 1 1 1 1 0
8 8 10 12 12 12 12 12 13 12 9 8 8 9 9 8 7 8 7 7 6 5 5 5 6 6 6 4 2 2 3 3 2 2 3 2 2 1 1 1 2 1 0
11 11 11 11 12 13 13 14 14 13 11 9 8 9 8 7 6 7 7 6 6 6 4 4 5 6 5 4 2 2 5 5 3 2 1 1 1 1 0 1 1 1 1
14 13 11 11 11 13 15 16 16 15 13 10 9 9 7 6 5 6 6 6 6 5 4 3 4 4 4 3 1 1 3 3 2 1 0 0 0 0 0 0 0 2 3
16 14 11 9 10 12 15 16 16 14 12 10 8 8 7 5 4 4 5 6 5 4 3 3 3 3 3 2 1 0 1 1 1 0 0 0 0 0 0 0 0 2 5
14 12 10 9 8 10 13 14 14 13 10 9 8 7 6 5 4 3 3 4 4 3 3 3 3 3 3 2 1 0 0 0 0 0 0 0 0 0 0 0 0 2 4
11 11 11 10 7 7 9 10 11 12 11 9 8 7 6 5 3 2 2 3 3 3 2 2 2 2 2 2 1 0 0 0 0 1 1 1 0 0 0 0 0 1 2
9 10 11 10 7 6 6 6 8 10 10 8 6 5 5 4 2 1 1 2 2 2 1 1 1 1 0 1 1 0 0 0 0 1 2 1 0 0 0 0 0 0 1
8 8 9 8 6 5 5 4 5 6 6 5 3 3 3 2 1 0 0 1 1 1 0 0 0 0 0 0 0 0 0 0 0 0 1 1 0 0 0 0 0 0 0
7 7 7 7 6 5 4 4 4 4 3 3 3 1 1 1 0 0 0 0 0 0 0 0 0 0 0 0 0 0 0 0 0 0 0 0 0 0 0 0 0 0 0
6 7 8 9 6 4 3 3 3 3 3 3 3 1 0 0 0 0 0 0 0 0 0 0 0 0 0 0 0 0 0 0 0 0 0 0 0 0 0 0 0 0 0
6 6 9 10 7 4 3 3 3 3 3 3 3 2 1 0 0 0 1 1 1 0 0 0 0 0 0 0 0 0 0 0 0 0 0 0 0 0 0 0 0 0 0
Wind_Speed
5 7 12 13 13 14 14 15 15 15 15 15 15 15 15 14 14 13 13 12 12 11 12 11 11 11 11 11 11 11 10 10 9 9 10 10 9 9 9 10 9 7 9
9 9 14 13 14 14 15 15 15 15 14 15 15 15 14 14 13 13 12 12 11 11 11 11 11 11 10 11 10 10 10 9 8 9 9 8 9 9 9 9 9 6 9
10 9 12 14 14 14 14 15 15 15 14 14 14 14 14 13 12 12 12 11 11 10 10 10 10 10 10 10 9 8 8 8 7 7 7 4 5 7 8 8 8 9 9
10 8 10 14 14 14 14 14 14 14 14 14 14 13 13 13 12 12 12 11 10 10 10 9 10 10 9 9 8 7 7 7 7 7 4 3 3 6 7 8 8 9 9
8 7 10 16 15 14 14 14 14 14 14 13 13 13 12 12 11 11 11 11 10 9 9 9 9 9 9 8 7 7 7 7 7 6 4 3 2 4 6 6 7 8 8
7 6 9 15 15 14 14 13 13 13 13 13 12 12 12 11 11 11 10 10 9 9 8 8 8 8 7 7 6 6 7 6 6 4 3 2 2 3 5 6 7 8 8
7 6 7 13 14 14 14 13 12 12 12 12 12 11 11 10 10 10 10 9 9 9 8 7 7 7 6 6 6 6 6 6 5 3 2 2 1 3 4 6 6 7 7
8 6 6 12 13 13 13 13 12 11 11 11 11 10 10 9 9 9 9 8 8 7 7 7 6 6 6 5 5 5 5 5 4 3 2 1 1 2 4 5 6 6 7
6 6 5 6 8 11 12 12 11 11 10 10 10 10 9 9 9 8 8 7 7 7 7 6 6 5 5 5 5 5 5 6 4 2 3 2 2 3 4 4 5 6 6
4 4 4 4 4 5 6 11 11 10 10 9 10 9 9 9 8 8 6 6 6 6 6 6 6 5 4 4 4 5 5 5 3 3 1 2 3 4 4 4 5 5 6
4 3 3 4 4 4 4 7 8 9 8 8 7 9 7 3 3 3 5 6 5 5 5 6 5 5 4 4 4 5 4 2 3 2 1 3 4 4 4 4 4 4 4
6 5 4 4 4 4 4 4 3 3 3 3 3 3 3 3 2 3 4 5 5 5 5 5 5 4 3 2 2 3 2 3 2 1 1 3 4 4 4 4 3 4 4
7 6 5 5 5 4 3 3 2 2 2 3 3 3 3 2 2 2 1 2 2 3 2 3 3 2 2 2 2 2 2 2 1 1 1 3 3 3 3 3 3 3 3
6 6 5 6 5 4 3 3 3 2 2 3 3 4 3 2 2 2 2 2 2 2 2 2 2 2 2 2 2 2 2 2 1 1 1 2 2 2 3 3 3 3 3
6 6 6 6 6 5 4 3 3 3 3 3 3 3 4 3 3 3 2 2 2 2 2 2 2 2 2 2 2 2 2 2 2 1 1 2 2 2 2 3 3 3 3
7 7 6 6 5 5 4 3 3 3 3 3 3 3 4 3 4 3 3 2 2 2 2 2 2 2 2 2 2 2 2 2 1 1 1 1 1 1 2 2 3 3 3
7 6 6 6 5 5 5 4 3 3 3 3 3 3 4 4 4 3 3 2 2 2 3 2 2 2 2 2 1 1 1 1 1 1 1 0 0 1 2 2 3 2 3
5 5 5 6 5 5 4 3 2 3 4 3 3 3 4 4 4 4 3 2 2 2 2 2 2 2 2 1 1 0 0 0 1 1 1 0 0 1 1 2 3 3 3
6 5 5 5 5 5 4 3 3 3 3 3 3 3 3 4 5 4 3 2 3 3 2 2 2 2 2 1 1 0 0 0 1 1 1 1 2 1 1 2 3 4 4
4 4 4 4 4 4 4 3 2 2 2 2 2 3 4 3 4 4 3 3 3 3 2 2 3 2 2 1 1 0 1 1 1 1 2 2 2 2 2 2 2 3 4
4 4 5 5 4 4 3 3 3 2 2 2 1 2 3 4 4 4 3 3 3 3 3 3 3 2 1 1 1 1 2 1 1 1 2 2 2 2 2 2 2 2 2
5 5 5 5 5 5 4 3 2 3 2 2 1 1 2 3 3 4 4 4 4 3 3 3 3 2 1 1 2 1 1 2 2 1 1 2 2 2 2 2 2 2 3
5 6 5 5 5 4 4 3 3 2 2 1 1 1 2 2 3 3 3 3 3 3 3 3 3 3 2 1 1 2 2 2 2 2 2 2 2 2 3 2 3 3 4
5 5 5 5 5 5 5 5 5 4 3 3 3 2 2 2 2 3 4 4 4 3 3 3 3 2 3 2 1 1 1 2 2 1 2 1 2 3 3 3 4 4 4
5 4 4 4 4 4 5 5 5 3 2 1 2 2 2 2 3 3 4 4 4 3 3 3 3 3 2 2 2 1 1 1 1 2 2 2 2 2 3 4 3 3 4
4 4 4 4 3 4 4 4 5 5 4 4 3 2 2 1 1 2 3 3 3 3 3 3 3 3 3 3 2 2 2 2 2 2 3 2 3 3 3 3 3 3 3
Wind_Direction
164 160 157 150 144 136 132 128 125 122 119 119 120 121 122 123 124 125 125 124 123 121 119 117 114 114 114 114 116 118 118 120 120 120 119 123 126 126 127 128 125 125 126
152 156 156 152 146 140 136 133 130 127 124 123 123 123 124 126 127 128 128 127 124 122 120 117 115 116 115 113 116 119 120 118 119 120 120 123 125 129 131 130 129 131 134
144 152 154 153 148 143 140 137 134 131 129 128 127 128 129 130 130 130 130 129 127 124 121 119 117 118 117 115 117 120 120 118 117 116 110 104 121 132 135 136 138 138 139
144 148 154 155 150 146 143 140 138 137 135 134 133 133 134 134 134 134 133 131 128 125 123 121 119 117 116 118 121 121 119 116 115 111 97 98 119 141 142 143 146 145 148
142 147 159 157 154 151 147 144 143 141 141 139 138 138 138 138 138 138 137 135 132 128 126 124 120 115 114 114 116 116 116 114 109 99 91 89 96 141 145 149 152 150 151
146 152 162 158 156 154 152 150 147 144 144 144 142 142 142 143 143 143 143 141 138 134 131 128 124 117 115 115 114 115 116 114 104 97 94 95 117 149 153 160 156 152 153
148 153 162 158 158 157 156 154 152 149 148 147 147 147 147 148 147 146 146 145 145 143 143 138 130 125 120 119 119 118 117 115 102 100 98 103 134 152 157 158 151 151 155
150 153 158 162 162 161 160 158 156 154 153 150 149 151 152 153 153 152 150 150 148 148 149 145 141 136 130 126 126 123 120 116 106 104 101 104 136 143 144 147 146 147 155
144 148 156 160 164 166 165 162 160 159 157 155 154 155 157 157 159 159 157 154 151 150 150 147 147 141 133 132 132 126 123 116 103 106 114 107 127 133 128 133 136 143 152
134 146 152 153 153 161 166 166 164 162 161 160 161 161 161 161 164 165 160 159 158 156 154 148 145 141 134 133 132 128 123 111 101 107 106 117 128 133 129 123 131 131 143
154 156 155 152 148 154 162 168 165 165 164 161 165 167 161 149 148 159 162 165 164 162 158 150 142 139 132 131 131 128 118 106 109 108 114 120 125 127 132 127 128 132 137
180 179 170 163 156 157 165 153 144 149 147 148 147 152 139 132 143 146 153 155 154 149 141 135 133 133 122 105 118 122 106 118 120 130 140 139 133 134 136 134 138 140 148
181 177 179 172 165 164 161 148 141 137 135 140 142 144 134 126 126 121 112 119 110 109 93 98 93 91 101 110 107 106 121 127 129 138 140 139 138 146 152 153 151 160 170
172 182 177 173 170 170 158 155 154 151 151 159 163 157 144 137 128 126 121 111 97 95 100 93 94 95 97 108 128 133 142 140 140 143 149 146 155 161 172 175 170 172 185
180 182 180 172 173 169 159 166 164 166 163 160 154 154 151 147 145 140 136 123 115 113 117 116 115 112 108 106 122 133 141 145 147 156 160 155 155 165 176 181 181 185 192
188 185 180 174 173 166 168 174 169 169 163 155 160 160 156 150 147 150 143 134 132 137 133 133 129 121 106 104 105 120 135 143 148 152 147 158 165 186 196 191 197 199 203
185 180 176 176 169 169 172 173 165 164 156 159 163 161 158 152 150 151 149 151 153 140 130 118 106 102 110 102 95 111 132 141 148 153 142 163 250 232 227 215 204 206 221
172 172 176 173 165 170 167 159 155 161 159 162 161 159 167 167 157 148 156 163 155 139 129 126 115 108 102 102 108 97 109 135 155 169 163 206 251 273 259 242 232 235 235
170 166 166 158 159 163 154 147 147 147 154 158 158 160 170 169 161 154 163 165 148 136 136 146 126 133 132 124 131 65 344 266 251 208 197 222 231 248 264 265 249 244 243
153 150 151 147 146 144 136 125 122 121 133 140 166 168 166 167 162 154 156 159 150 139 141 141 132 122 135 140 122 360 327 293 259 231 232 235 238 241 250 264 269 261 249
140 146 154 148 149 146 150 154 158 168 160 153 176 163 163 165 163 160 158 152 152 150 156 152 139 127 131 128 93 9 342 330 283 247 240 240 246 248 248 254 255 256 262
166 165 159 157 157 163 168 165 162 150 146 156 162 148 157 156 160 165 159 157 155 145 144 148 142 139 138 132 130 106 358 335 313 260 247 231 243 249 246 251 250 245 250
178 175 172 170 161 162 151 127 112 92 86 119 163 183 190 171 170 163 163 153 151 151 160 164 154 147 156 145 135 145 158 227 288 301 259 245 250 251 256 262 249 245 241
194 180 172 168 162 161 153 153 150 155 169 193 182 184 185 178 173 174 170 167 162 159 164 174 158 153 149 169 172 191 189 170 178 284 299 272 264 256 257 259 256 253 248
182 172 167 160 156 154 162 164 160 158 161 153 149 165 181 180 183 183 176 169 166 167 174 175 166 162 166 175 184 179 184 186 183 194 265 293 294 262 255 254 255 251 247
154 152 150 153 157 161 165 170 173 173 168 158 163 171 178 178 189 188 176 169 173 174 182 184 181 175 182 181 191 190 186 194 199 194 226 255 277 281 271 256 247 247 245